Погода Агзу

Погода Агзу : погода сейчас, прогноз погоды и архив. Всё, что Вы хотите узнать о погоде Агзу!

Хотите узнать прогноз погоды Агзу? Тогда Вам сюда: Погода Агзу

Поиск расширенной информации на нашем сайте:

Другие новости

Новости СМИ2

Главная страница сайта

Новости сайта

03.07.2017

Напоминаем, что на нашем специализированном сайте Метеоцентр.Азия вы можете получить высокодетализированные автоматические прогнозы погоды по пунктам России, СНГ и мира в авиационном формате (включающие направление и скорость ветра, видимость, явления погоды, количество и форму облачности, нижнюю и верхнюю границу облачности).


Погода Агзу - сегодня

Время (UTC), дата Ветер
(°,м/с) 
Видим.   Явления Облачность Т
(°С)
Тd
(°С)
f(%) Тe
(°С)
Pmin
(гПа)
dP
(гПа)
Po
(мм)
O2
(г/м3)
Тmin Tmax R s Состояние
почвы
00 16.04.18 210 (ЮЗ) н/о    н/о 
+5.4 -1.4 62 +6  1009.3  0.2  742  293           
03 16.04.18 260 (З) 20000 м    6/6 1000 м 
[Cu hum]
+11.9 -7.2 26 +12  1007.1  -1.7  740  287           
06 16.04.18 290 (З) н/о    н/о 
+14.5 -8.7 19 +15  1006.2  -0.7  740  284           
12 16.04.18 360 (С) н/о    н/о 
+1.5 -5.1 61 +2  1011.2  2.9  743  298           
15 16.04.18 310 (СЗ) 20000 м    4/0 верхняя 
[Ci sp]
-2.7 -5.8 79 -2  1012.8  1.2  744  303           
18 16.04.18 тихо ()   н/о    н/о 
-3.9 -5.8 87 -4  1013.8  1.2  744  305           
00 17.04.18 230 (ЮЗ) н/о    н/о 
+10.4 -4.2 36 +11  1013.4  -0.7  745  290           
03 17.04.18 120 (ЮВ) 20000 м    5/0 средняя, верхняя 
[Ac trans|Cc]
+17.8 -7.1 18 +18  1009.7  -3.1  743  282           
06 17.04.18 150 (ЮВ) н/о    н/о 
+19.8 -6.4 16 +21  1006.6  -2.9  740  279           
12 17.04.18 050 (СВ) н/о    н/о 
+6.8 -2.6 51 +8  1009.1  742  292           
15 17.04.18 тихо ()   20000 м    10/10 1000 м 
[Sc]
+2.4 -2.3 71 +2  1010.1  0.6  742  297           
18 17.04.18 тихо ()   н/о    н/о 
+0.2 -2.7 81 1010.1  -0.2  742  299           
00 18.04.18 140 (ЮВ) н/о    н/о 
+10.2 -1.4 44 +11  1009.2  -0.7  742  288           
03 18.04.18 320 (СЗ) 20000 м    10/1 1000 м верхняя 
[Cu hum|Cs]
+20.1 -1.1 24 +20  1005.8  -2.6  740  278           
06 18.04.18 300 (СЗ) н/о    н/о 
+20.9 -0.5 24 +21  1003.7  -2  738  276           
12 18.04.18 050 (СВ) н/о    н/о 
+9.1 +1.3 58 +10  1007.3  740  289           
15 18.04.18 060 (СВ) 20000 м    4/0 верхняя 
[Ci fib]
+3.7 +0.3 78 +5  1008.7  0.9  741  295           
18 18.04.18 080 (В) н/о    н/о 
+0.6 -0.9 90 +1  1010.4  1.4  742  298           
00 19.04.18 120 (ЮВ) н/о    н/о 
+8.4 +1.2 60 +8  1010.5  -0.7  743  290           
03 19.04.18 160 (Ю) 20000 м    3/3 1000 м 
[Cu hum]
+15.6 +2.8 42 +16  1008.1  -1.8  741  282           
06 19.04.18 160 (Ю) 5{11}  н/о    н/о 
+13 +2.3 48 +12  1007.6  -0.7  741  285           
12 19.04.18 110 (В) н/о    н/о 
+3.6 +0.8 82 +3  1012.2  2.6  744  296           
15 19.04.18 080 (В) 20000 м    10/0 средняя, верхняя 
[Ac As|Cs]
+0.3 -0.6 94 +1  1013.2  0.7  744  300           
18 19.04.18 тихо ()   н/о    н/о 
-2.3 -2.5 99 -2  1013.4  0.1  744  303           
00 20.04.18 300 (СЗ) н/о    н/о 
+8.5 +1 59 +10  1011.9  -1.4  744  290           
Время (UTC), дата Ветер
(°,м/с) 
Видим.   Явления Облачность Т
(°С)
Тd
(°С)
f(%) Тe
(°С)
Pmin
(гПа)
dP
(гПа)
Po
(мм)
O2
(г/м3)
Тmin Tmax R s Состояние
почвы

Для получения пояснительной информации подведите курсор к названию столбца.

ПОГОДА Агзу - архив

Всё, что Вы хотите узнать о погоде Агзу - удобно и подробно!

Выберите нужную дату (начиная с 1 января 2015* года) и нажмите кнопку "Найти".
Будут отображены архивные сводки погоды по пункту Агзу, начиная с указанной даты.


Отображать данные в формате CSV (для использования в таблицах Excel)


Внимание! Наш архив погоды предназначен исключительно для личного некоммерческого использования в познавательных целях. Если Вам необходимы официальные справки о состоянии погоды (для производственных, юридических, коммерческих и т.п. целей), обращайтесь в органы Росгидромета.

*Примечание: данная дата относится к архиву по метеостанциям СССР (Россия, СНГ, Балтия).
Архив по метеостанциям Зарубежной Европы и Азии (кроме Китая) хранится 10 дней, по другим регионам земного шара (Китай, Африка, Америка, Австралия, Океания) - 1 день.

Агзу - район местоположения метеостанции


Название, широта, долгота, высота метеостанции:
Агзу 47.6°ш. 138.4°д. 165 м над ур. моря [Российская Федерация]

Дополнительная информация

В oтличие oт бoльшинства пoгoдных сайтoв мы публикуем пoдрoбную метеoинфoрмацию в детальнoм прoфессиoнальнoм фoрмате.

Характеристики температуры и влажнoсти вoздуха измеряются на высoте 2 м в тени вдали oт зданий и деревьев.
Скoрoсть ветра измеряется на высoте 10 м (на урoвне рoста челoвека скoрoсть ветра ниже в 1.5-2 раза). Если метеoстанция нахoдится в гoрoде или в лесу, тo скoрoсть ветра занижена на 2-4 м/с пo сравнению с oткрытым местoм. Скoрoсть ветра над акватoриями крупных рек и oзёр, а также на вершинах хoлмoв на 2-5 м/с выше, чем в oбычных услoвиях.
Атмoсфернoе давление в разных тoчках местнoсти мoжет значительнo oтличаться oт давления на метеoстанции, в зависимoсти oт услoвий рельефа (при пoдъёме на 10 м давление пoнижается примернo на 1 мм рт.ст.).